Flag for U.S.A. Weather past 2 weeks in Pasadena, California, U.S.A.

Now
57 °F

Fog.


Feels Like: 57 °F
Forecast: 56 / 76 °F
Wind: No wind

Location: Burbank-Glendale-Pasadena Airport

Current Time: Mar 31, 2015 at 9:07:42 AM

Latest Report: Mar 31, 2015 at 7:53 AM


Visibility: 4 mi

Pressure: 29.97 "Hg

Humidity: 87%

Dew point: 53 °F

Location of PasadenaLocation

Historic Weather in Pasadena — Graph

°F

Pasadena temperature yesterday

Maximum temperature yesterday: 82 °F (at 2:53 PM)
Minimum temperature yesterday: 55 °F (at 6:53 AM)
Average temperature yesterday: 67 °F

Past Weeks' High & Low Weather Summary

 TemperatureHumidityPressure
High91 °F (Mar 26, 3:53 PM)90% (Mar 21, 5:53 AM)30.16 "Hg (Mar 21, 5:53 AM)
Low53 °F (Mar 23, 6:53 AM)11% (Mar 26, 12:53 PM)29.84 "Hg (Mar 16, 5:53 PM)
Average69 °F50%29.99 "Hg
* Reported Mar 16 7:53 AM — Mar 31 7:53 AM, Pasadena, Weather by CustomWeather, © 2015

Note: Actual official high and low records may vary slightly from our data, if they occured in-between our weather recording intervals... More about our weather records

Advertising

Pasadena weather history for previous 24 hours

 ConditionsComfort  
Time TempWeatherWind HumidityBarometerVisibility
7:53 AM
Tue, Mar 31
57 °FFog.No wind87%29.97 "Hg4 mi
6:53 AM57 °FClear.No wind78%29.94 "Hg7 mi
5:53 AM56 °FClear.No wind65%29.94 "Hg10 mi
4:53 AM56 °FClear.No wind65%29.93 "Hg10 mi
3:53 AM57 °FClear.No wind64%29.94 "Hg10 mi
2:53 AM58 °FClear.No wind70%29.95 "Hg10 mi
1:53 AM60 °FClear.No wind80%29.95 "Hg8 mi
12:53 AM61 °FClear.3 mph75%29.96 "Hg10 mi
11:53 PM
Mon, Mar 30
61 °FClear.No wind78%29.97 "Hg10 mi
10:53 PM62 °FClear.5 mph78%29.97 "Hg10 mi
9:53 PM63 °FClear.6 mph73%29.96 "Hg10 mi
8:53 PM65 °FClear.7 mph66%29.95 "Hg10 mi
7:53 PM67 °FSunny.9 mph63%29.93 "Hg10 mi
6:53 PM71 °FSunny.10 mph53%29.91 "Hg10 mi
5:53 PM75 °FSunny.9 mph43%29.90 "Hg10 mi
4:53 PM79 °FSunny.9 mph34%29.90 "Hg10 mi
3:53 PM81 °FSunny.9 mph25%29.91 "Hg10 mi
2:53 PM82 °FSunny.10 mph27%29.92 "Hg10 mi
1:53 PM81 °FSunny.8 mph35%29.95 "Hg10 mi
12:53 PM80 °FSunny.6 mph34%29.97 "Hg10 mi
11:53 AM78 °FSunny.No wind29%29.98 "Hg10 mi
10:53 AM73 °FSunny.3 mph36%30.00 "Hg10 mi
9:53 AM69 °FSunny.No wind36%29.99 "Hg10 mi
Weather by CustomWeather, © 2015

See weather overviewHow to use our weather pages